Location: Gleizolles
(44.4833°N, 6.7667°E)
Time: 21:11:03
(UTC+00:00)

A-11 Canister half - Pass Details

Date: 01 July 2024
Orbit: 1524 x 1684 km, 47.3° (Epoch: 18 July)

Event Time Altitude Azimuth Distance (km) Brightness Sun altitude
Rises 16:37:19 0° 294° (WNW) 4,692 12.7 26.3°
Reaches altitude 10° 16:40:36 10° 287° (WNW) 3,698 12.8 25.7°
Maximum altitude 16:48:55 39° 223° (SW) 2,144 10.5 24.3°
Drops below altitude 10° 16:57:17 10° 159° (SSE) 3,701 10.8 22.8°
Sets 17:00:36 0° 151° (SSE) 4,696 11.2 22.2°
